Powrót do katalogu

STARLINK-37317

AktywnyŁącznośćVLEO
NORAD 69152·PAYLOAD·🇺🇸 United States

Wystrzelony May 21, 2026 z Cape Canaveral Space Force Station

Loading…

Następne Przeloty (najbliższe 24 godziny)

TLE

ŚwieżeSource: CelesTrak SupGP

Epoka: Sep 15, 2026, 03:04 UTC

1 69152C 26111E   26258.12826389 -.00016068  00000+0 -47483-3 0  2585
2 69152  53.1577  91.0827 0001207  87.6688 159.5865 15.34392337    13

Śledź STARLINK-37317 w czasie rzeczywistym z AllMySat

Download on the App Store